Location: Brusselsch Zeekanaal
(50.8667°N, 4.3667°E)
Time: 10:05:08
(UTC+00:00)

PAYLOAD A - Pass Details

Date: 08 November 2025
Orbit: 690 x 828 km, 98.6° (Epoch: 11 December)

Event Time Altitude Azimuth Distance (km) Brightness Sun altitude
Rises 04:07:35 0° 15° (NNE) 3,384 7.6 -25.2°
Reaches altitude 10° 04:09:58 10° 15° (NNE) 2,445 6.8 -24.8°
Maximum altitude 04:15:26 87° 105° (ESE) 829 4.1 -24.0°
Enters shadow 04:20:30 11° 196° (SSW) 2,285 6.3 -23.2°
